STARLINK-1487, 45758

Orbit data source: Space-Track

STARLINK-1487, 45758 is a payload satellite owned by SpaceX/Seattle (US) in LEO that was launched on Sat, 13 Jun 2020 UTC via an FALCON 9 launch vehicle from the Air Force Eastern Test Range (AFETR). Payload-class satellites include a variety of spacecraft equipped with specific instruments for various scientific and technological missions. These include communications satellites like Starlink; space stations such as the ISS; scientific satellites like the Hubble; Earth observation satellites from companies like Planet Labs, Umbra, and HawkEye 360; GPS; miniature CubeSats for education and research; and military/defense satellites.

Not visible in the next 10 days
Identifier
45758, 2020-038AE
Orbit
LEO
Last TLE update
12 hours ago
Origin
Manufacturer
SpaceX/Seattle
Mission
Partially operational Commercial Communications
Bus & Motor
STARLINK, Unknown motor
Mass
260 kg wet, ~248 kg dry
Launch date (UTC)
2020-06-13 (5 years ago)
Launch vehicle
FALCON 9
Launch site
Air Force Eastern Test Range (AFETR)
Object type
Payload
Rocket body
Debris
Shape & HBR
Box + 1 Pan, 8.86 m
Radar Cross Section
13.562 m², Large (>1 m²)

Expand to show TLE details & history

TLE from 12 hours ago
0 STARLINK-1487
1 45758U 20038AE  25182.72895703  .00106874  00000-0  51142-3 0  9993
2 45758  53.0198  86.6168 0002881  69.4048 290.7282 15.81975666281120
Epoch: 2025-07-01T17:29Z
TLE epoch observation values (Epoch: 2025-07-01T17:29:41.887Z)
Latitude
-0.00003°
Longitude
-95.82799°
Altitude
325.075 km
Speed
7.715 km/s
True Right ascension
05h 46m 28s
True Declination
0° 00' 00"
Sunlit
Object was in daylight at epoch
Visualization orbit readout
Latitude
-44.39233°
Longitude
-145.46394°
Altitude
340.779 km
Speed
7.703 km/s
Apparent Right ascension
03h 46m 31s
Apparent Declination
-43° 42' 25"
Sunlit
Object is in daylight
Visualization observer readout
Local Sidereal Time
17:03:37
Azimuth
111.108° ESE
Elevation
-75.18°
Doppler factor
1
Orbital elements
Apogee altitude
327.07 km
Perigee altitude
323.208 km
Semi-major axis
6,703.276 km
Eccentricity
0.00029
Inclination
53.0198°
RAAN
86.6168°
Arg. of periapsis
69.4048°
True anomaly
Unknown
Mean anomaly
290.7282°
Eccentric anomaly
Unknown
Mean motion
3.95469 °/min
Orbital period
91.03 mins
BSTAR
0.00051142
Loading maneuver chart data...
Loading SW <> Apogee altitude chart data...

STARLINK-1487 Visibility

Observer location: undefined°, undefined°

STARLINK-1487 is likely not visible in the next few days
Span
Click to sort rows by Start time (UTC) header in descending order
Start Az.
Max El. time (UTC)
Max El. Az.
Max El.
End time (UTC)
End Az.
|